Year,Month,Day,Hour,Minute,Value (Times are PST for temperature in C)
2002,06,12,00,00,14.90
2002,06,12,00,01,14.80
2002,06,12,00,02,14.80
2002,06,12,00,03,14.60
2002,06,12,00,04,14.60
2002,06,12,00,05,14.50
2002,06,12,00,06,14.40
2002,06,12,00,07,14.30
2002,06,12,00,08,14.20
2002,06,12,00,09,14.10
2002,06,12,00,10,14.00
2002,06,12,00,11,14.00
2002,06,12,00,12,13.90
2002,06,12,00,13,13.90
2002,06,12,00,14,13.90
2002,06,12,00,15,13.80
2002,06,12,00,16,13.80
2002,06,12,00,17,13.80
2002,06,12,00,18,13.70
2002,06,12,00,19,13.70
2002,06,12,00,20,13.70
2002,06,12,00,21,13.70
2002,06,12,00,22,13.70
2002,06,12,00,23,13.70
2002,06,12,00,24,13.70
2002,06,12,00,25,13.70
2002,06,12,00,26,13.70
2002,06,12,00,27,13.70
2002,06,12,00,28,13.70
2002,06,12,00,29,13.70
2002,06,12,00,30,13.70
2002,06,12,00,31,13.70
2002,06,12,00,32,13.70
2002,06,12,00,33,13.80
2002,06,12,00,34,13.90
2002,06,12,00,35,13.90
2002,06,12,00,36,13.90
2002,06,12,00,37,13.90
2002,06,12,00,38,14.00
2002,06,12,00,39,14.00
2002,06,12,00,40,14.00
2002,06,12,00,41,14.00
2002,06,12,00,42,14.00
2002,06,12,00,43,13.90
2002,06,12,00,44,13.90
2002,06,12,00,45,13.90
2002,06,12,00,46,13.90
2002,06,12,00,47,13.90
2002,06,12,00,48,13.90
2002,06,12,00,49,13.90
2002,06,12,00,50,13.90
2002,06,12,00,51,13.90
2002,06,12,00,52,13.90
2002,06,12,00,53,13.80
2002,06,12,00,54,13.80
2002,06,12,00,55,13.80
2002,06,12,00,56,13.80
2002,06,12,00,57,13.80
2002,06,12,00,58,13.70
2002,06,12,00,59,13.70
2002,06,12,01,00,13.70
2002,06,12,01,01,13.70
2002,06,12,01,02,13.60
2002,06,12,01,03,13.50
2002,06,12,01,04,13.50
2002,06,12,01,05,13.50
2002,06,12,01,06,13.40
2002,06,12,01,07,13.40
2002,06,12,01,08,13.30
2002,06,12,01,09,13.30
2002,06,12,01,10,13.30
2002,06,12,01,11,13.30
2002,06,12,01,12,13.30
2002,06,12,01,13,13.30
2002,06,12,01,14,13.30
2002,06,12,01,15,13.30
2002,06,12,01,16,13.30
2002,06,12,01,17,13.30
2002,06,12,01,18,13.30
2002,06,12,01,19,13.30
2002,06,12,01,20,13.30
2002,06,12,01,21,13.30
2002,06,12,01,22,13.30
2002,06,12,01,23,13.30
2002,06,12,01,24,13.30
2002,06,12,01,25,13.30
2002,06,12,01,26,13.30
2002,06,12,01,27,13.30
2002,06,12,01,28,13.30
2002,06,12,01,29,13.30
2002,06,12,01,30,13.30
2002,06,12,01,31,13.30
2002,06,12,01,32,13.30
2002,06,12,01,33,13.30
2002,06,12,01,34,13.20
2002,06,12,01,35,13.20
2002,06,12,01,36,13.10
2002,06,12,01,37,13.10
2002,06,12,01,38,13.00
2002,06,12,01,39,13.00
2002,06,12,01,40,12.90
2002,06,12,01,41,12.90
2002,06,12,01,42,12.90
2002,06,12,01,43,12.80
2002,06,12,01,44,12.80
2002,06,12,01,45,12.80
2002,06,12,01,46,12.80
2002,06,12,01,47,12.80
2002,06,12,01,48,12.70
2002,06,12,01,49,12.70
2002,06,12,01,50,12.70
2002,06,12,01,51,12.70
2002,06,12,01,52,12.60
2002,06,12,01,53,12.60
2002,06,12,01,54,12.50
2002,06,12,01,55,12.40
2002,06,12,01,56,12.40
2002,06,12,01,57,12.30
2002,06,12,01,58,12.30
2002,06,12,01,59,12.20
2002,06,12,02,00,12.10
2002,06,12,02,01,12.10
2002,06,12,02,02,12.10
2002,06,12,02,03,12.00
2002,06,12,02,04,12.00
2002,06,12,02,05,11.90
2002,06,12,02,06,11.90
2002,06,12,02,07,11.80
2002,06,12,02,08,11.80
2002,06,12,02,09,11.70
2002,06,12,02,10,11.70
2002,06,12,02,11,11.60
2002,06,12,02,12,11.50
2002,06,12,02,13,11.40
2002,06,12,02,14,11.40
2002,06,12,02,15,11.40
2002,06,12,02,16,11.40
2002,06,12,02,17,11.30
2002,06,12,02,18,11.20
2002,06,12,02,19,11.20
2002,06,12,02,20,11.10
2002,06,12,02,21,11.10
2002,06,12,02,22,11.10
2002,06,12,02,23,11.00
2002,06,12,02,24,10.90
2002,06,12,02,25,10.90
2002,06,12,02,26,10.90
2002,06,12,02,27,10.90
2002,06,12,02,28,10.80
2002,06,12,02,29,10.80
2002,06,12,02,30,10.80
2002,06,12,02,31,10.70
2002,06,12,02,32,10.70
2002,06,12,02,33,10.70
2002,06,12,02,34,10.60
2002,06,12,02,35,10.60
2002,06,12,02,36,10.60
2002,06,12,02,37,10.60
2002,06,12,02,38,10.60
2002,06,12,02,39,10.60
2002,06,12,02,40,10.60
2002,06,12,02,41,10.60
2002,06,12,02,42,10.50
2002,06,12,02,43,10.50
2002,06,12,02,44,10.40
2002,06,12,02,45,10.50
2002,06,12,02,46,10.40
2002,06,12,02,47,10.40
2002,06,12,02,48,10.40
2002,06,12,02,49,10.40
2002,06,12,02,50,10.40
2002,06,12,02,51,10.40
2002,06,12,02,52,10.40
2002,06,12,02,53,10.40
2002,06,12,02,54,10.40
2002,06,12,02,55,10.40
2002,06,12,02,56,10.30
2002,06,12,02,57,10.30
2002,06,12,02,58,10.30
2002,06,12,02,59,10.30
2002,06,12,03,00,10.30
2002,06,12,03,01,10.20
2002,06,12,03,02,10.20
2002,06,12,03,03,10.20
2002,06,12,03,04,10.20
2002,06,12,03,05,10.20
2002,06,12,03,06,10.20
2002,06,12,03,07,10.20
2002,06,12,03,08,10.20
2002,06,12,03,09,10.20
2002,06,12,03,10,10.10
2002,06,12,03,11,10.10
2002,06,12,03,12,10.10
2002,06,12,03,13,10.10
2002,06,12,03,14,10.10
2002,06,12,03,15,10.10
2002,06,12,03,16,10.10
2002,06,12,03,17,10.10
2002,06,12,03,18,10.10
2002,06,12,03,19,10.10
2002,06,12,03,20,10.20
2002,06,12,03,21,10.20
2002,06,12,03,22,10.20
2002,06,12,03,23,10.20
2002,06,12,03,24,10.20
2002,06,12,03,25,10.20
2002,06,12,03,26,10.20
2002,06,12,03,27,10.20
2002,06,12,03,28,10.30
2002,06,12,03,29,10.30
2002,06,12,03,30,10.30
2002,06,12,03,31,10.30
2002,06,12,03,32,10.30
2002,06,12,03,33,10.30
2002,06,12,03,34,10.40
2002,06,12,03,35,10.40
2002,06,12,03,36,10.40
2002,06,12,03,37,10.40
2002,06,12,03,38,10.40
2002,06,12,03,39,10.40
2002,06,12,03,40,10.40
2002,06,12,03,41,10.40
2002,06,12,03,42,10.40
2002,06,12,03,43,10.40
2002,06,12,03,44,10.40
2002,06,12,03,45,10.40
2002,06,12,03,46,10.40
2002,06,12,03,47,10.40
2002,06,12,03,48,10.40
2002,06,12,03,49,10.30
2002,06,12,03,50,10.40
2002,06,12,03,51,10.40
2002,06,12,03,52,10.40
2002,06,12,03,53,10.40
2002,06,12,03,54,10.40
2002,06,12,03,55,10.40
2002,06,12,03,56,10.40
2002,06,12,03,57,10.30
2002,06,12,03,58,10.30
2002,06,12,03,59,10.30
2002,06,12,04,00,10.30
2002,06,12,04,01,10.30
2002,06,12,04,02,10.30
2002,06,12,04,03,10.30
2002,06,12,04,04,10.30
2002,06,12,04,05,10.30
2002,06,12,04,06,10.30
2002,06,12,04,07,10.30
2002,06,12,04,08,10.30
2002,06,12,04,09,10.30
2002,06,12,04,10,10.30
2002,06,12,04,11,10.30
2002,06,12,04,12,10.30
2002,06,12,04,13,10.40
2002,06,12,04,14,10.40
2002,06,12,04,15,10.40
2002,06,12,04,16,10.40
2002,06,12,04,17,10.40
2002,06,12,04,18,10.40
2002,06,12,04,19,10.40
2002,06,12,04,20,10.40
2002,06,12,04,21,10.40
2002,06,12,04,22,10.40
2002,06,12,04,23,10.40
2002,06,12,04,24,10.50
2002,06,12,04,25,10.60
2002,06,12,04,26,10.60
2002,06,12,04,27,10.60
2002,06,12,04,28,10.60
2002,06,12,04,29,10.60
2002,06,12,04,30,10.60
2002,06,12,04,31,10.60
2002,06,12,04,32,10.60
2002,06,12,04,33,10.60
2002,06,12,04,34,10.60
2002,06,12,04,35,10.60
2002,06,12,04,36,10.60
2002,06,12,04,37,10.60
2002,06,12,04,38,10.60
2002,06,12,04,39,10.60
2002,06,12,04,40,10.60
2002,06,12,04,41,10.60
2002,06,12,04,42,10.60
2002,06,12,04,43,10.60
2002,06,12,04,44,10.60
2002,06,12,04,45,10.60
2002,06,12,04,46,10.60
2002,06,12,04,47,10.70
2002,06,12,04,48,10.70
2002,06,12,04,49,10.70
2002,06,12,04,50,10.70
2002,06,12,04,51,10.70
2002,06,12,04,52,10.70
2002,06,12,04,53,10.70
2002,06,12,04,54,10.80
2002,06,12,04,55,10.80
2002,06,12,04,56,10.80
2002,06,12,04,57,10.80
2002,06,12,04,58,10.80
2002,06,12,04,59,10.80
2002,06,12,05,00,10.80
2002,06,12,05,01,10.80
2002,06,12,05,02,10.80
2002,06,12,05,03,10.90
2002,06,12,05,04,10.90
2002,06,12,05,05,10.90
2002,06,12,05,06,10.90
2002,06,12,05,07,10.90
2002,06,12,05,08,10.90
2002,06,12,05,09,10.90
2002,06,12,05,10,10.90
2002,06,12,05,11,10.90
2002,06,12,05,12,10.90
2002,06,12,05,13,10.90
2002,06,12,05,14,10.90
2002,06,12,05,15,10.90
2002,06,12,05,16,11.00
2002,06,12,05,17,11.10
2002,06,12,05,18,11.10
2002,06,12,05,19,11.10
2002,06,12,05,20,11.10
2002,06,12,05,21,11.20
2002,06,12,05,22,11.20
2002,06,12,05,23,11.20
2002,06,12,05,24,11.20
2002,06,12,05,25,11.20
2002,06,12,05,26,11.20
2002,06,12,05,27,11.20
2002,06,12,05,28,11.30
2002,06,12,05,29,11.30
2002,06,12,05,30,11.30
2002,06,12,05,31,11.30
2002,06,12,05,32,11.40
2002,06,12,05,33,11.40
2002,06,12,05,34,11.40
2002,06,12,05,35,11.40
2002,06,12,05,36,11.40
2002,06,12,05,37,11.40
2002,06,12,05,38,11.40
2002,06,12,05,39,11.50
2002,06,12,05,40,11.60
2002,06,12,05,41,11.60
2002,06,12,05,42,11.60
2002,06,12,05,43,11.60
2002,06,12,05,44,11.60
2002,06,12,05,45,11.70
2002,06,12,05,46,11.70
2002,06,12,05,47,11.80
2002,06,12,05,48,11.80
2002,06,12,05,49,11.80
2002,06,12,05,50,11.80
2002,06,12,05,51,11.90
2002,06,12,05,52,12.00
2002,06,12,05,53,12.00
2002,06,12,05,54,12.10
2002,06,12,05,55,12.10
2002,06,12,05,56,12.20
2002,06,12,05,57,12.20
2002,06,12,05,58,12.30
2002,06,12,05,59,12.30
2002,06,12,06,00,12.30
2002,06,12,06,01,12.30
2002,06,12,06,02,12.30
2002,06,12,06,03,12.30
2002,06,12,06,04,12.30
2002,06,12,06,05,12.30
2002,06,12,06,06,12.30
2002,06,12,06,07,12.30
2002,06,12,06,08,12.30
2002,06,12,06,09,12.30
2002,06,12,06,10,12.20
2002,06,12,06,11,12.20
2002,06,12,06,12,12.20
2002,06,12,06,13,12.10
2002,06,12,06,14,12.10
2002,06,12,06,15,12.20
2002,06,12,06,16,12.20
2002,06,12,06,17,12.20
2002,06,12,06,18,12.30
2002,06,12,06,19,12.40
2002,06,12,06,20,12.50
2002,06,12,06,21,12.60
2002,06,12,06,22,12.70
2002,06,12,06,23,12.90
2002,06,12,06,24,13.00
2002,06,12,06,25,13.10
2002,06,12,06,26,13.20
2002,06,12,06,27,13.40
2002,06,12,06,28,13.50
2002,06,12,06,29,13.60
2002,06,12,06,30,13.70
2002,06,12,06,31,13.70
2002,06,12,06,32,13.90
2002,06,12,06,33,13.90
2002,06,12,06,34,14.00
2002,06,12,06,35,14.10
2002,06,12,06,36,14.20
2002,06,12,06,37,14.30
2002,06,12,06,38,14.50
2002,06,12,06,39,14.60
2002,06,12,06,40,14.60
2002,06,12,06,41,14.70
2002,06,12,06,42,14.70
2002,06,12,06,43,14.80
2002,06,12,06,44,14.80
2002,06,12,06,45,14.80
2002,06,12,06,46,14.90
2002,06,12,06,47,14.90
2002,06,12,06,48,14.90
2002,06,12,06,49,15.00
2002,06,12,06,50,15.00
2002,06,12,06,51,15.10
2002,06,12,06,52,15.10
2002,06,12,06,53,15.20
2002,06,12,06,54,15.20
2002,06,12,06,55,15.30
2002,06,12,06,56,15.30
2002,06,12,06,57,15.30
2002,06,12,06,58,15.30
2002,06,12,06,59,15.30
2002,06,12,07,00,15.40
2002,06,12,07,01,15.50
2002,06,12,07,02,15.50
2002,06,12,07,03,15.50
2002,06,12,07,04,15.50
2002,06,12,07,05,15.50
2002,06,12,07,06,15.40
2002,06,12,07,07,15.50
2002,06,12,07,08,15.50
2002,06,12,07,09,15.60
2002,06,12,07,10,15.70
2002,06,12,07,11,15.80
2002,06,12,07,12,15.80
2002,06,12,07,13,15.80
2002,06,12,07,14,15.80
2002,06,12,07,15,15.80
2002,06,12,07,16,15.80
2002,06,12,07,17,15.80
2002,06,12,07,18,15.80
2002,06,12,07,19,15.90
2002,06,12,07,20,15.90
2002,06,12,07,21,15.90
2002,06,12,07,22,15.90
2002,06,12,07,23,15.90
2002,06,12,07,24,15.80
2002,06,12,07,25,15.90
2002,06,12,07,26,15.90
2002,06,12,07,27,15.90
2002,06,12,07,28,15.90
2002,06,12,07,29,15.90
2002,06,12,07,30,15.90
2002,06,12,07,31,16.00
2002,06,12,07,32,16.10
2002,06,12,07,33,16.10
2002,06,12,07,34,16.10
2002,06,12,07,35,16.10
2002,06,12,07,36,16.10
2002,06,12,07,37,16.00
2002,06,12,07,38,15.90
2002,06,12,07,39,16.00
2002,06,12,07,40,16.10
2002,06,12,07,41,16.10
2002,06,12,07,42,16.10
2002,06,12,07,43,16.10
2002,06,12,07,44,16.10
2002,06,12,07,45,16.10
2002,06,12,07,46,16.10
2002,06,12,07,47,16.20
2002,06,12,07,48,16.20
2002,06,12,07,49,16.20
2002,06,12,07,50,16.30
2002,06,12,07,51,16.30
2002,06,12,07,52,16.40
2002,06,12,07,53,16.40
2002,06,12,07,54,16.40
2002,06,12,07,55,16.40
2002,06,12,07,56,16.40
2002,06,12,07,57,16.30
2002,06,12,07,58,16.30
2002,06,12,07,59,16.30
2002,06,12,08,00,16.30
2002,06,12,08,01,16.30
2002,06,12,08,02,16.30
2002,06,12,08,03,16.40
2002,06,12,08,04,16.40
2002,06,12,08,05,16.40
2002,06,12,08,06,16.40
2002,06,12,08,07,16.40
2002,06,12,08,08,16.50
2002,06,12,08,09,16.60
2002,06,12,08,10,16.50
2002,06,12,08,11,16.50
2002,06,12,08,12,16.60
2002,06,12,08,13,16.50
2002,06,12,08,14,16.60
2002,06,12,08,15,16.60
2002,06,12,08,16,16.60
2002,06,12,08,17,16.70
2002,06,12,08,18,16.70
2002,06,12,08,19,16.70
2002,06,12,08,20,16.70
2002,06,12,08,21,16.70
2002,06,12,08,22,16.80
2002,06,12,08,23,16.90
2002,06,12,08,24,16.90
2002,06,12,08,25,16.90
2002,06,12,08,26,16.90
2002,06,12,08,27,16.90
2002,06,12,08,28,16.80
2002,06,12,08,29,16.80
2002,06,12,08,30,16.80
2002,06,12,08,31,16.80
2002,06,12,08,32,16.90
2002,06,12,08,33,16.90
2002,06,12,08,34,16.90
2002,06,12,08,35,17.00
2002,06,12,08,36,17.00
2002,06,12,08,37,17.00
2002,06,12,08,38,17.00
2002,06,12,08,39,17.00
2002,06,12,08,40,17.00
2002,06,12,08,41,17.00
2002,06,12,08,42,17.10
2002,06,12,08,43,17.20
2002,06,12,08,44,17.30
2002,06,12,08,45,17.30
2002,06,12,08,46,17.30
2002,06,12,08,47,17.30
2002,06,12,08,48,17.30
2002,06,12,08,49,17.40
2002,06,12,08,50,17.40
2002,06,12,08,51,17.30
2002,06,12,08,52,17.30
2002,06,12,08,53,17.30
2002,06,12,08,54,17.30
2002,06,12,08,55,17.30
2002,06,12,08,56,17.10
2002,06,12,08,57,17.10
2002,06,12,08,58,17.00
2002,06,12,08,59,17.00
2002,06,12,09,00,17.00
2002,06,12,09,01,17.10
2002,06,12,09,02,17.20
2002,06,12,09,03,17.20
2002,06,12,09,04,17.30
2002,06,12,09,05,17.30
2002,06,12,09,06,17.30
2002,06,12,09,07,17.30
2002,06,12,09,08,17.30
2002,06,12,09,09,17.40
2002,06,12,09,10,17.40
2002,06,12,09,11,17.40
2002,06,12,09,12,17.40
2002,06,12,09,13,17.40
2002,06,12,09,14,17.40
2002,06,12,09,15,17.50
2002,06,12,09,16,17.50
2002,06,12,09,17,17.60
2002,06,12,09,18,17.60
2002,06,12,09,19,17.60
2002,06,12,09,20,17.70
2002,06,12,09,21,17.80
2002,06,12,09,22,17.80
2002,06,12,09,23,17.80
2002,06,12,09,24,17.80
2002,06,12,09,25,17.90
2002,06,12,09,26,17.90
2002,06,12,09,27,17.80
2002,06,12,09,28,17.80
2002,06,12,09,29,17.90
2002,06,12,09,30,17.90
2002,06,12,09,31,17.90
2002,06,12,09,32,17.90
2002,06,12,09,33,17.90
2002,06,12,09,34,18.00
2002,06,12,09,35,18.10
2002,06,12,09,36,18.20
2002,06,12,09,37,18.10
2002,06,12,09,38,18.10
2002,06,12,09,39,18.10
2002,06,12,09,40,18.10
2002,06,12,09,41,18.10
2002,06,12,09,42,18.10
2002,06,12,09,43,18.00
2002,06,12,09,44,18.10
2002,06,12,09,45,18.10
2002,06,12,09,46,18.10
2002,06,12,09,47,18.20
2002,06,12,09,48,18.20
2002,06,12,09,49,18.20
2002,06,12,09,50,18.20
2002,06,12,09,51,18.20
2002,06,12,09,52,18.30
2002,06,12,09,53,18.30
2002,06,12,09,54,18.40
2002,06,12,09,55,18.30
2002,06,12,09,56,18.20
2002,06,12,09,57,18.20
2002,06,12,09,58,18.20
2002,06,12,09,59,18.20
2002,06,12,10,00,18.10
2002,06,12,10,01,18.10
2002,06,12,10,02,18.10
2002,06,12,10,03,18.10
2002,06,12,10,04,18.10
2002,06,12,10,05,18.20
2002,06,12,10,06,18.20
2002,06,12,10,07,18.20
2002,06,12,10,08,18.30
2002,06,12,10,09,18.40
2002,06,12,10,10,18.40
2002,06,12,10,11,18.30
2002,06,12,10,12,18.40
2002,06,12,10,13,18.40
2002,06,12,10,14,18.50
2002,06,12,10,15,18.50
2002,06,12,10,16,18.60
2002,06,12,10,17,18.80
2002,06,12,10,18,18.80
2002,06,12,10,19,18.80
2002,06,12,10,20,18.80
2002,06,12,10,21,18.80
2002,06,12,10,22,18.70
2002,06,12,10,23,18.70
2002,06,12,10,24,18.70
2002,06,12,10,25,18.60
2002,06,12,10,26,18.70
2002,06,12,10,27,18.70
2002,06,12,10,28,18.70
2002,06,12,10,29,18.70
2002,06,12,10,30,18.70
2002,06,12,10,31,18.60
2002,06,12,10,32,18.60
2002,06,12,10,33,18.70
2002,06,12,10,34,18.80
2002,06,12,10,35,18.90
2002,06,12,10,36,19.00
2002,06,12,10,37,19.00
2002,06,12,10,38,19.00
2002,06,12,10,39,19.10
2002,06,12,10,40,19.10
2002,06,12,10,41,19.00
2002,06,12,10,42,19.00
2002,06,12,10,43,19.10
2002,06,12,10,44,19.10
2002,06,12,10,45,19.10
2002,06,12,10,46,19.10
2002,06,12,10,47,19.10
2002,06,12,10,48,19.20
2002,06,12,10,49,19.20
2002,06,12,10,50,19.20
2002,06,12,10,51,19.20
2002,06,12,10,52,19.10
2002,06,12,10,53,19.20
2002,06,12,10,54,19.20
2002,06,12,10,55,19.20
2002,06,12,10,56,19.20
2002,06,12,10,57,19.30
2002,06,12,10,58,19.20
2002,06,12,10,59,19.20
2002,06,12,11,00,19.20
2002,06,12,11,01,19.20
2002,06,12,11,02,19.30
2002,06,12,11,03,19.30
2002,06,12,11,04,19.40
2002,06,12,11,05,19.40
2002,06,12,11,06,19.40
2002,06,12,11,07,19.50
2002,06,12,11,08,19.60
2002,06,12,11,09,19.60
2002,06,12,11,10,19.70
2002,06,12,11,11,19.60
2002,06,12,11,12,19.50
2002,06,12,11,13,19.60
2002,06,12,11,14,19.50
2002,06,12,11,15,19.50
2002,06,12,11,16,19.40
2002,06,12,11,17,19.40
2002,06,12,11,18,19.40
2002,06,12,11,19,19.40
2002,06,12,11,20,19.40
2002,06,12,11,21,19.50
2002,06,12,11,22,19.40
2002,06,12,11,23,19.40
2002,06,12,11,24,19.30
2002,06,12,11,25,19.40
2002,06,12,11,26,19.40
2002,06,12,11,27,19.30
2002,06,12,11,28,19.30
2002,06,12,11,29,19.30
2002,06,12,11,30,19.40
2002,06,12,11,31,19.60
2002,06,12,11,32,19.60
2002,06,12,11,33,19.60
2002,06,12,11,34,19.60
2002,06,12,11,35,19.50
2002,06,12,11,36,19.50
2002,06,12,11,37,19.40
2002,06,12,11,38,19.40
2002,06,12,11,39,19.50
2002,06,12,11,40,19.50
2002,06,12,11,41,19.60
2002,06,12,11,42,19.70
2002,06,12,11,43,19.70
2002,06,12,11,44,19.80
2002,06,12,11,45,19.90
2002,06,12,11,46,19.90
2002,06,12,11,47,19.90
2002,06,12,11,48,19.90
2002,06,12,11,49,19.90
2002,06,12,11,50,19.90
2002,06,12,11,51,20.00
2002,06,12,11,52,20.20
2002,06,12,11,53,20.20
2002,06,12,11,54,20.20
2002,06,12,11,55,20.40
2002,06,12,11,56,20.50
2002,06,12,11,57,20.40
2002,06,12,11,58,20.20
2002,06,12,11,59,20.20
2002,06,12,12,00,20.20
2002,06,12,12,01,20.20
2002,06,12,12,02,20.20
2002,06,12,12,03,20.20
2002,06,12,12,04,20.20
2002,06,12,12,05,20.30
2002,06,12,12,06,20.40
2002,06,12,12,07,20.40
2002,06,12,12,08,20.40
2002,06,12,12,09,20.20
2002,06,12,12,10,20.20
2002,06,12,12,11,20.20
2002,06,12,12,12,20.20
2002,06,12,12,13,20.20
2002,06,12,12,14,20.50
2002,06,12,12,15,20.60
2002,06,12,12,16,20.70
2002,06,12,12,17,20.60
2002,06,12,12,18,20.60
2002,06,12,12,19,20.70
2002,06,12,12,20,20.90
2002,06,12,12,21,21.10
2002,06,12,12,22,21.20
2002,06,12,12,23,21.20
2002,06,12,12,24,21.20
2002,06,12,12,25,21.10
2002,06,12,12,26,21.10
2002,06,12,12,27,21.10
2002,06,12,12,28,21.10
2002,06,12,12,29,21.00
2002,06,12,12,30,20.90
2002,06,12,12,31,20.90
2002,06,12,12,32,21.00
2002,06,12,12,33,21.10
2002,06,12,12,34,21.30
2002,06,12,12,35,21.40
2002,06,12,12,36,21.40
2002,06,12,12,37,21.50
2002,06,12,12,38,21.60
2002,06,12,12,39,21.60
2002,06,12,12,40,21.60
2002,06,12,12,41,21.70
2002,06,12,12,42,21.70
2002,06,12,12,43,21.80
2002,06,12,12,44,21.90
2002,06,12,12,45,22.00
2002,06,12,12,46,22.00
2002,06,12,12,47,22.10
2002,06,12,12,48,22.00
2002,06,12,12,49,21.80
2002,06,12,12,50,21.80
2002,06,12,12,51,21.90
2002,06,12,12,52,21.90
2002,06,12,12,53,21.90
2002,06,12,12,54,22.00
2002,06,12,12,55,22.10
2002,06,12,12,56,22.10
2002,06,12,12,57,22.10
2002,06,12,12,58,22.00
2002,06,12,12,59,22.00
2002,06,12,13,00,22.00
2002,06,12,13,01,22.00
2002,06,12,13,02,22.10
2002,06,12,13,03,22.20
2002,06,12,13,04,22.20
2002,06,12,13,05,22.00
2002,06,12,13,06,21.90
2002,06,12,13,07,21.70
2002,06,12,13,08,21.60
2002,06,12,13,09,21.50
2002,06,12,13,10,21.60
2002,06,12,13,11,21.80
2002,06,12,13,12,22.00
2002,06,12,13,13,22.10
2002,06,12,13,14,22.20
2002,06,12,13,15,22.20
2002,06,12,13,16,22.20
2002,06,12,13,17,22.20
2002,06,12,13,18,22.30
2002,06,12,13,19,22.40
2002,06,12,13,20,22.50
2002,06,12,13,21,22.50
2002,06,12,13,22,22.40
2002,06,12,13,23,22.30
2002,06,12,13,24,22.20
2002,06,12,13,25,22.30
2002,06,12,13,26,22.30
2002,06,12,13,27,22.30
2002,06,12,13,28,22.20
2002,06,12,13,29,22.20
2002,06,12,13,30,22.20
2002,06,12,13,31,22.10
2002,06,12,13,32,22.00
2002,06,12,13,33,22.00
2002,06,12,13,34,22.00
2002,06,12,13,35,22.00
2002,06,12,13,36,22.20
2002,06,12,13,37,22.30
2002,06,12,13,38,22.40
2002,06,12,13,39,22.30
2002,06,12,13,40,22.30
2002,06,12,13,41,22.40
2002,06,12,13,42,22.50
2002,06,12,13,43,22.50
2002,06,12,13,44,22.60
2002,06,12,13,45,22.60
2002,06,12,13,46,22.50
2002,06,12,13,47,22.50
2002,06,12,13,48,22.50
2002,06,12,13,49,22.60
2002,06,12,13,50,22.60
2002,06,12,13,51,22.60
2002,06,12,13,52,22.60
2002,06,12,13,53,22.70
2002,06,12,13,54,22.80
2002,06,12,13,55,22.80
2002,06,12,13,56,22.80
2002,06,12,13,57,22.80
2002,06,12,13,58,22.80
2002,06,12,13,59,22.80
2002,06,12,14,00,22.60
2002,06,12,14,01,22.60
2002,06,12,14,02,22.60
2002,06,12,14,03,22.50
2002,06,12,14,04,22.60
2002,06,12,14,05,22.90
2002,06,12,14,06,23.00
2002,06,12,14,07,23.10
2002,06,12,14,08,23.20
2002,06,12,14,09,23.20
2002,06,12,14,10,23.20
2002,06,12,14,11,23.10
2002,06,12,14,12,23.00
2002,06,12,14,13,22.90
2002,06,12,14,14,22.90
2002,06,12,14,15,23.00
2002,06,12,14,16,23.20
2002,06,12,14,17,23.30
2002,06,12,14,18,23.50
2002,06,12,14,19,23.60
2002,06,12,14,20,23.70
2002,06,12,14,21,23.70
2002,06,12,14,22,23.70
2002,06,12,14,23,23.70
2002,06,12,14,24,23.70
2002,06,12,14,25,23.70
2002,06,12,14,26,23.70
2002,06,12,14,27,23.70
2002,06,12,14,28,23.70
2002,06,12,14,29,23.70
2002,06,12,14,30,23.80
2002,06,12,14,31,23.90
2002,06,12,14,32,23.90
2002,06,12,14,33,24.10
2002,06,12,14,34,24.10
2002,06,12,14,35,24.10
2002,06,12,14,36,24.00
2002,06,12,14,37,23.90
2002,06,12,14,38,23.90
2002,06,12,14,39,24.00
2002,06,12,14,40,24.00
2002,06,12,14,41,24.10
2002,06,12,14,42,24.10
2002,06,12,14,43,24.20
2002,06,12,14,44,24.20
2002,06,12,14,45,24.10
2002,06,12,14,46,24.20
2002,06,12,14,47,24.20
2002,06,12,14,48,24.20
2002,06,12,14,49,24.30
2002,06,12,14,50,24.30
2002,06,12,14,51,24.30
2002,06,12,14,52,24.40
2002,06,12,14,53,24.40
2002,06,12,14,54,24.40
2002,06,12,14,55,24.40
2002,06,12,14,56,24.50
2002,06,12,14,57,24.50
2002,06,12,14,58,24.50
2002,06,12,14,59,24.40
2002,06,12,15,00,24.20
2002,06,12,15,01,24.20
2002,06,12,15,02,24.10
2002,06,12,15,03,24.10
2002,06,12,15,04,24.10
2002,06,12,15,05,24.20
2002,06,12,15,06,24.20
2002,06,12,15,07,24.30
2002,06,12,15,08,24.40
2002,06,12,15,09,24.50
2002,06,12,15,10,24.50
2002,06,12,15,11,24.40
2002,06,12,15,12,24.40
2002,06,12,15,13,24.40
2002,06,12,15,14,24.40
2002,06,12,15,15,24.20
2002,06,12,15,16,24.10
2002,06,12,15,17,24.10
2002,06,12,15,18,24.10
2002,06,12,15,19,24.10
2002,06,12,15,20,24.10
2002,06,12,15,21,24.20
2002,06,12,15,22,24.20
2002,06,12,15,23,24.20
2002,06,12,15,24,24.30
2002,06,12,15,25,24.30
2002,06,12,15,26,24.30
2002,06,12,15,27,24.40
2002,06,12,15,28,24.50
2002,06,12,15,29,24.50
2002,06,12,15,30,24.50
2002,06,12,15,31,24.60
2002,06,12,15,32,24.80
2002,06,12,15,33,24.90
2002,06,12,15,34,25.10
2002,06,12,15,35,25.30
2002,06,12,15,36,25.50
2002,06,12,15,37,25.60
2002,06,12,15,38,25.60
2002,06,12,15,39,25.70
2002,06,12,15,40,25.70
2002,06,12,15,41,25.60
2002,06,12,15,42,25.50
2002,06,12,15,43,25.50
2002,06,12,15,44,25.40
2002,06,12,15,45,25.20
2002,06,12,15,46,25.10
2002,06,12,15,47,25.00
2002,06,12,15,48,25.00
2002,06,12,15,49,25.00
2002,06,12,15,50,25.00
2002,06,12,15,51,25.20
2002,06,12,15,52,25.30
2002,06,12,15,53,25.40
2002,06,12,15,54,25.40
2002,06,12,15,55,25.30
2002,06,12,15,56,25.30
2002,06,12,15,57,25.20
2002,06,12,15,58,25.20
2002,06,12,15,59,25.20
2002,06,12,16,00,25.20
2002,06,12,16,01,25.20
2002,06,12,16,02,25.20
2002,06,12,16,03,25.10
2002,06,12,16,04,25.10
2002,06,12,16,05,25.00
2002,06,12,16,06,24.80
2002,06,12,16,07,24.80
2002,06,12,16,08,24.80
2002,06,12,16,09,24.70
2002,06,12,16,10,24.60
2002,06,12,16,11,24.60
2002,06,12,16,12,24.70
2002,06,12,16,13,24.80
2002,06,12,16,14,24.80
2002,06,12,16,15,24.80
2002,06,12,16,16,24.80
2002,06,12,16,17,24.80
2002,06,12,16,18,24.80
2002,06,12,16,19,24.80
2002,06,12,16,20,24.70
2002,06,12,16,21,24.60
2002,06,12,16,22,24.70
2002,06,12,16,23,24.70
2002,06,12,16,24,24.80
2002,06,12,16,25,24.80
2002,06,12,16,26,24.90
2002,06,12,16,27,25.00
2002,06,12,16,28,25.20
2002,06,12,16,29,25.40
2002,06,12,16,30,25.40
2002,06,12,16,31,25.50
2002,06,12,16,32,25.50
2002,06,12,16,33,25.50
2002,06,12,16,34,25.50
2002,06,12,16,35,25.70
2002,06,12,16,36,25.80
2002,06,12,16,37,25.80
2002,06,12,16,38,25.80
2002,06,12,16,39,25.90
2002,06,12,16,40,25.80
2002,06,12,16,41,25.70
2002,06,12,16,42,25.60
2002,06,12,16,43,25.60
2002,06,12,16,44,25.70
2002,06,12,16,45,25.70
2002,06,12,16,46,25.70
2002,06,12,16,47,25.70
2002,06,12,16,48,25.70
2002,06,12,16,49,25.60
2002,06,12,16,50,25.60
2002,06,12,16,51,25.60
2002,06,12,16,52,25.70
2002,06,12,16,53,25.80
2002,06,12,16,54,25.80
2002,06,12,16,55,25.80
2002,06,12,16,56,25.80
2002,06,12,16,57,25.70
2002,06,12,16,58,25.70
2002,06,12,16,59,25.60
2002,06,12,17,00,25.60
2002,06,12,17,01,25.60
2002,06,12,17,02,25.60
2002,06,12,17,03,25.60
2002,06,12,17,04,25.70
2002,06,12,17,05,25.80
2002,06,12,17,06,25.80
2002,06,12,17,07,25.70
2002,06,12,17,08,25.60
2002,06,12,17,09,25.50
2002,06,12,17,10,25.50
2002,06,12,17,11,25.40
2002,06,12,17,12,25.40
2002,06,12,17,13,25.40
2002,06,12,17,14,25.40
2002,06,12,17,15,25.40
2002,06,12,17,16,25.40
2002,06,12,17,17,25.40
2002,06,12,17,18,25.50
2002,06,12,17,19,25.60